• en France
  • Liste des pays
  • À 7 jours
  • Température de l'eau
  • Carte satellitaire
  • Carte météo
  • Widgets météo
  • user-avatar
    Se connecter

    Météo par heure à Nashavar

    Ce jour, 18 Novembre, Samedi

    Heure Température Précipitation Vent Pression Humidité
    00:00 +15°C° 0 mm 2 m/s 733 mmHg 33%
    01:00 +15°C° 0 mm 2 m/s 733 mmHg 32%
    02:00 +14°C° 0 mm 3 m/s 733 mmHg 32%
    03:00 +13°C° 0 mm 3 m/s 733 mmHg 31%
    04:00 +14°C° 0 mm 2 m/s 733 mmHg 31%
    05:00 +13°C° 0 mm 3 m/s 732 mmHg 29%
    06:00 +13°C° 0 mm 3 m/s 732 mmHg 29%
    07:00 +14°C° 0 mm 3 m/s 733 mmHg 28%
    08:00 +15°C° 0 mm 2 m/s 733 mmHg 28%
    09:00 +17°C° 0 mm 3 m/s 733 mmHg 25%
    10:00 +18°C° 0 mm 3 m/s 733 mmHg 22%
    11:00 +21°C° 0 mm 2 m/s 733 mmHg 18%
    12:00 +21°C° 0 mm 2 m/s 733 mmHg 17%
    13:00 +23°C° 0 mm 2 m/s 733 mmHg 17%
    14:00 +23°C° 0 mm 2 m/s 733 mmHg 16%
    15:00 +23°C° 0 mm 2 m/s 733 mmHg 18%
    16:00 +21°C° 0 mm 2 m/s 733 mmHg 19%
    17:00 +20°C° 0 mm 1 m/s 733 mmHg 22%
    18:00 +20°C° 0 mm 1 m/s 733 mmHg 22%
    19:00 +18°C° 0 mm 2 m/s 733 mmHg 22%
    20:00 +17°C° 0 mm 2 m/s 733 mmHg 23%
    21:00 +17°C° 0 mm 2 m/s 734 mmHg 22%
    22:00 +16°C° 0 mm 2 m/s 734 mmHg 22%
    23:00 +16°C° 0 mm 2 m/s 734 mmHg 21%

    Demain, 19 Novembre, Dimanche

    Heure Température Précipitation Vent Pression Humidité
    00:00 +16°C° 0 mm 2 m/s 734 mmHg 21%
    01:00 +15°C° 0 mm 2 m/s 734 mmHg 21%
    02:00 +15°C° 0 mm 2 m/s 734 mmHg 21%
    03:00 +15°C° 0 mm 2 m/s 734 mmHg 21%
    04:00 +14°C° 0 mm 2 m/s 733 mmHg 21%
    05:00 +14°C° 0 mm 2 m/s 733 mmHg 22%
    06:00 +14°C° 0 mm 2 m/s 734 mmHg 22%
    07:00 +15°C° 0 mm 2 m/s 734 mmHg 22%
    08:00 +15°C° 0 mm 2 m/s 734 mmHg 23%
    09:00 +17°C° 0 mm 2 m/s 734 mmHg 20%
    10:00 +19°C° 0 mm 2 m/s 734 mmHg 18%
    11:00 +20°C° 0 mm 2 m/s 734 mmHg 15%
    12:00 +21°C° 0 mm 2 m/s 734 mmHg 14%
    13:00 +23°C° 0 mm 2 m/s 734 mmHg 14%
    14:00 +24°C° 0 mm 2 m/s 733 mmHg 13%
    15:00 +23°C° 0 mm 2 m/s 733 mmHg 15%
    16:00 +21°C° 0 mm 2 m/s 733 mmHg 16%
    17:00 +21°C° 0 mm 1 m/s 733 mmHg 18%
    18:00 +19°C° 0 mm 2 m/s 733 mmHg 18%
    19:00 +18°C° 0 mm 2 m/s 734 mmHg 19%
    20:00 +17°C° 0 mm 2 m/s 734 mmHg 19%
    21:00 +17°C° 0 mm 2 m/s 734 mmHg 19%
    22:00 +16°C° 0 mm 2 m/s 734 mmHg 19%
    23:00 +16°C° 0 mm 2 m/s 734 mmHg 19%

    Après-demain, 20 Novembre, Lundi

    Heure Température Précipitation Vent Pression Humidité
    00:00 +16°C° 0 mm 2 m/s 734 mmHg 18%
    01:00 +15°C° 0 mm 2 m/s 734 mmHg 17%
    02:00 +15°C° 0 mm 2 m/s 734 mmHg 16%
    03:00 +15°C° 0 mm 2 m/s 734 mmHg 16%
    04:00 +14°C° 0 mm 2 m/s 734 mmHg 16%
    05:00 +14°C° 0 mm 2 m/s 733 mmHg 15%
    06:00 +14°C° 0 mm 2 m/s 734 mmHg 16%
    07:00 +15°C° 0 mm 2 m/s 734 mmHg 16%
    08:00 +15°C° 0 mm 2 m/s 734 mmHg 16%
    09:00 +17°C° 0 mm 2 m/s 734 mmHg 14%
    10:00 +19°C° 0 mm 2 m/s 735 mmHg 12%
    11:00 +21°C° 0 mm 2 m/s 735 mmHg 10%
    12:00 +23°C° 0 mm 2 m/s 734 mmHg 10%
    13:00 +23°C° 0 mm 2 m/s 734 mmHg 9%
    14:00 +24°C° 0 mm 2 m/s 733 mmHg 9%
    15:00 +23°C° 0 mm 2 m/s 733 mmHg 10%
    16:00 +22°C° 0 mm 1 m/s 733 mmHg 12%
    17:00 +21°C° 0 mm 1 m/s 733 mmHg 14%
    18:00 +20°C° 0 mm 1 m/s 733 mmHg 13%
    19:00 +18°C° 0 mm 2 m/s 733 mmHg 13%
    20:00 +17°C° 0 mm 2 m/s 733 mmHg 13%
    21:00 +17°C° 0 mm 2 m/s 733 mmHg 13%
    22:00 +16°C° 0 mm 2 m/s 733 mmHg 13%
    23:00 +16°C° 0 mm 2 m/s 733 mmHg 13%

    21 Novembre, Mardi

    Heure Température Précipitation Vent Pression Humidité
    00:00 +15°C° 0 mm 2 m/s 733 mmHg 13%
    01:00 +15°C° 0 mm 2 m/s 733 mmHg 12%
    02:00 +15°C° 0 mm 2 m/s 732 mmHg 11%
    03:00 +14°C° 0 mm 2 m/s 732 mmHg 11%
    04:00 +14°C° 0 mm 2 m/s 732 mmHg 11%
    05:00 +14°C° 0 mm 2 m/s 732 mmHg 10%
    06:00 +14°C° 0 mm 2 m/s 732 mmHg 11%
    07:00 +14°C° 0 mm 2 m/s 732 mmHg 11%
    08:00 +15°C° 0 mm 2 m/s 733 mmHg 12%
    09:00 +17°C° 0 mm 2 m/s 733 mmHg 10%
    10:00 +19°C° 0 mm 2 m/s 733 mmHg 9%
    11:00 +21°C° 0 mm 2 m/s 733 mmHg 7%
    12:00 +23°C° 0 mm 2 m/s 732 mmHg 7%
    13:00 +24°C° 0 mm 2 m/s 732 mmHg 7%
    14:00 +25°C° 0 mm 2 m/s 731 mmHg 6%
    15:00 +23°C° 0 mm 2 m/s 731 mmHg 8%
    16:00 +21°C° 0 mm 2 m/s 731 mmHg 9%
    17:00 +21°C° 0 mm 1 m/s 731 mmHg 11%
    18:00 +19°C° 0 mm 2 m/s 731 mmHg 11%
    19:00 +18°C° 0 mm 2 m/s 731 mmHg 11%
    20:00 +17°C° 0 mm 2 m/s 732 mmHg 11%
    21:00 +17°C° 0 mm 2 m/s 732 mmHg 11%
    22:00 +16°C° 0 mm 2 m/s 732 mmHg 11%
    23:00 +16°C° 0 mm 2 m/s 732 mmHg 11%

    22 Novembre, Mercredi

    Heure Température Précipitation Vent Pression Humidité
    00:00 +15°C° 0 mm 2 m/s 732 mmHg 10%
    01:00 +15°C° 0 mm 2 m/s 731 mmHg 10%
    02:00 +15°C° 0 mm 2 m/s 731 mmHg 10%
    03:00 +14°C° 0 mm 2 m/s 731 mmHg 10%
    04:00 +14°C° 0 mm 2 m/s 731 mmHg 10%
    05:00 +14°C° 0 mm 2 m/s 731 mmHg 10%
    06:00 +14°C° 0 mm 2 m/s 731 mmHg 10%
    07:00 +14°C° 0 mm 2 m/s 731 mmHg 10%
    08:00 +15°C° 0 mm 2 m/s 732 mmHg 11%
    09:00 +18°C° 0 mm 1 m/s 732 mmHg 9%
    10:00 +20°C° 0 mm 1 m/s 732 mmHg 8%
    11:00 +22°C° 0 mm 1 m/s 732 mmHg 6%
    12:00 +23°C° 0 mm 1 m/s 732 mmHg 6%
    13:00 +24°C° 0 mm 1 m/s 731 mmHg 6%
    14:00 +25°C° 0 mm 1 m/s 731 mmHg 6%
    15:00 +23°C° 0 mm 1 m/s 731 mmHg 7%
    16:00 +22°C° 0 mm 1 m/s 731 mmHg 9%
    17:00 +21°C° 0 mm 1 m/s 730 mmHg 11%
    18:00 +20°C° 0 mm 1 m/s 731 mmHg 11%
    19:00 +19°C° 0 mm 1 m/s 731 mmHg 10%
    20:00 +18°C° 0 mm 1 m/s 731 mmHg 10%
    21:00 +18°C° 0 mm 1 m/s 731 mmHg 11%
    22:00 +16°C° 0 mm 1 m/s 731 mmHg 11%
    23:00 +16°C° 0 mm 1 m/s 731 mmHg 11%

    23 Novembre, Jeudi

    Heure Température Précipitation Vent Pression Humidité
    00:00 +15°C° 0 mm 1 m/s 731 mmHg 11%
    01:00 +15°C° 0 mm 1 m/s 731 mmHg 11%
    02:00 +15°C° 0 mm 1 m/s 730 mmHg 11%
    03:00 +14°C° 0 mm 1 m/s 730 mmHg 11%
    04:00 +14°C° 0 mm 1 m/s 730 mmHg 11%
    05:00 +14°C° 0 mm 1 m/s 730 mmHg 11%
    06:00 +14°C° 0 mm 1 m/s 730 mmHg 11%
    07:00 +15°C° 0 mm 1 m/s 730 mmHg 11%
    08:00 +15°C° 0 mm 1 m/s 731 mmHg 11%
    09:00 +18°C° 0 mm 1 m/s 731 mmHg 10%
    10:00 +20°C° 0 mm 1 m/s 731 mmHg 8%
    11:00 +22°C° 0 mm 1 m/s 731 mmHg 7%
    12:00 +23°C° 0 mm 1 m/s 731 mmHg 6%
    13:00 +24°C° 0 mm 1 m/s 731 mmHg 6%
    14:00 +24°C° 0 mm 1 m/s 730 mmHg 6%
    15:00 +23°C° 0 mm 1 m/s 730 mmHg 8%
    16:00 +22°C° 0 mm 1 m/s 730 mmHg 10%
    17:00 +18°C° 0 mm 0 m/s 730 mmHg 12%
    18:00 +20°C° 0 mm 1 m/s 730 mmHg 12%
    19:00 +19°C° 0 mm 1 m/s 731 mmHg 12%
    20:00 +18°C° 0 mm 1 m/s 731 mmHg 11%
    21:00 +18°C° 0 mm 1 m/s 731 mmHg 11%
    22:00 +16°C° 0 mm 1 m/s 731 mmHg 12%
    23:00 +16°C° 0 mm 1 m/s 731 mmHg 12%
    Voir plus